Weather History for Wroclaw, Poland

Change the Weather History Date:

Tuesday, February 5, 2013

  Actual Average Record
Temperature  
Mean Temperature 40 °F -  
Max Temperature 46 °F 39 °F 60 °F (2004)
Min Temperature 35 °F 26 °F 0 °F (2006)
Degree Days  
Heating Degree Days 24    
Moisture  
Dew Point 32 °F    
Average Humidity 70    
Maximum Humidity 87    
Minimum Humidity 53    
Precipitation  
Precipitation 0.00 in 0.03 in - ()
Sea Level Pressure  
Sea Level Pressure 29.57 in    
Wind  
Wind Speed 9 mph ()    
Max Wind Speed 20 mph    
Max Gust Speed 34 mph    
Visibility 6.9 miles    
Events Rain , Snow    
Averages and records for this station are not official NWS values.
T = Trace of Precipitation, MM = Missing Value Source: Averaged Metar Reports

Daily Weather History Graph

Daily Weather History Graph

Search for Another Location

Airport:

Trip Planner

Search our weather history database for the weather conditions in past years. The results will help you decide how hot, cold, wet, or windy it might be!

Date:

Astronomy

Feb. 05, 2013 Rise Set
Actual Time 7:23 AM CET 4:50 PM CET
Civil Twilight 6:47 AM CET 5:25 PM CET
Nautical Twilight 6:08 AM CET 6:05 PM CET
Astronomical Twilight 5:29 AM CET 6:43 PM CET
Moon 2:57 AM CET (2/5) 11:38 AM CET (2/5)
Length of Visible Light 10h 38m
Length of Day
9h 27m
Waning Crescent, 29% of the Moon is Illuminated
Feb 5
Waning Crescent
Feb 10
New
Feb 17
First Quarter
Feb 25
Full
Mar 4
Last Quarter

Hourly Weather History & Observations

Time (CET) Temp. Windchill Dew Point Humidity Pressure Visibility Wind Dir Wind Speed Gust Speed Precip Events Conditions
12:00 AM 39.2 °F 29.6 °F 33.8 °F 81% 29.71 in 6.2 mi West 19.6 mph 34.5 mph N/A Rain Rain Showers
12:30 AM 39.2 °F 30.8 °F 33.8 °F 81% 29.71 in 6.2 mi West 15.0 mph - N/A Rain Light Rain Showers
1:00 AM 38 °F - 33 °F 74% 29.73 in 31 mi WSW 11.2 mph - - Rain Light Rain Showers
1:00 AM 39.2 °F 33.0 °F 32.0 °F 75% 29.71 in - West 9.2 mph - N/A   Clear
1:30 AM 41.0 °F 34.7 °F 32.0 °F 70% 29.71 in - WSW 10.4 mph - N/A   Clear
2:00 AM 41.0 °F 35.2 °F 32.0 °F 70% 29.71 in - WSW 9.2 mph - N/A   Clear
2:30 AM 39.2 °F 35.0 °F 32.0 °F 75% 29.71 in 6.2 mi SW 5.8 mph - N/A   Partly Cloudy
3:00 AM 39.2 °F 35.0 °F 30.2 °F 70% 29.68 in - SW 5.8 mph - N/A   Clear
3:30 AM 39.2 °F 35.0 °F 30.2 °F 70% 29.68 in 6.2 mi SW 5.8 mph - N/A   Partly Cloudy
4:00 AM 37 °F - 31 °F 72% 29.70 in 31 mi SW 8.9 mph - -   Scattered Clouds
4:00 AM 39.2 °F 35.0 °F 30.2 °F 70% 29.68 in 6.2 mi SW 5.8 mph - N/A   Partly Cloudy
4:30 AM 39.2 °F 35.9 °F 30.2 °F 70% 29.68 in - SW 4.6 mph - N/A   Clear
5:00 AM 39.2 °F 37.0 °F 30.2 °F 70% 29.68 in 6.2 mi SW 3.5 mph - N/A   Partly Cloudy
5:30 AM 39.2 °F 35.9 °F 32.0 °F 75% 29.65 in 6.2 mi SSW 4.6 mph - N/A   Partly Cloudy
6:00 AM 39.2 °F 35.9 °F 32.0 °F 75% 29.65 in - SSW 4.6 mph - N/A   Clear
6:30 AM 39.2 °F 35.0 °F 32.0 °F 75% 29.65 in - SSW 5.8 mph - N/A   Clear
7:00 AM 38 °F - 32 °F 70% 29.66 in 31 mi SSW 8.9 mph - -   Mostly Cloudy
7:00 AM 39.2 °F 35.9 °F 30.2 °F 70% 29.65 in - SSW 4.6 mph - N/A   Clear
7:30 AM 39.2 °F 35.9 °F 32.0 °F 75% 29.62 in - SSW 4.6 mph - N/A   Clear
8:00 AM 39.2 °F 34.2 °F 32.0 °F 75% 29.62 in 6.2 mi SSW 6.9 mph - N/A   Mostly Cloudy
8:30 AM 39.2 °F 34.2 °F 32.0 °F 75% 29.62 in 6.2 mi SSW 6.9 mph - N/A   Scattered Clouds
9:00 AM 41.0 °F 37.1 °F 32.0 °F 70% 29.62 in 6.2 mi SSW 5.8 mph - N/A   Scattered Clouds
9:30 AM 41.0 °F 37.1 °F 33.8 °F 76% 29.59 in 6.2 mi South 5.8 mph - N/A   Partly Cloudy
10:00 AM 41 °F - 34 °F 68% 29.61 in 19 mi SSW 8.9 mph - -   Scattered Clouds
10:00 AM 41.0 °F 36.4 °F 33.8 °F 76% 29.59 in 6.2 mi SSW 6.9 mph - N/A   Partly Cloudy
10:30 AM 42.8 °F 39.3 °F 33.8 °F 70% 29.59 in 6.2 mi SSW 5.8 mph - N/A   Partly Cloudy
11:00 AM 42.8 °F 38.0 °F 33.8 °F 70% 29.56 in 6.2 mi SSW 8.1 mph - N/A   Partly Cloudy
11:30 AM 44.6 °F 39.7 °F 35.6 °F 71% 29.56 in - SSW 9.2 mph - N/A   Clear
12:00 PM 44.6 °F 39.7 °F 35.6 °F 71% 29.56 in - SW 9.2 mph - N/A   Clear
12:30 PM 46.4 °F 41.1 °F 35.6 °F 66% 29.53 in - SW 11.5 mph - N/A   Clear
1:00 PM 45 °F - 36 °F 61% 29.54 in 25 mi SW 13.4 mph - -   Partly Cloudy
1:00 PM 46.4 °F 41.1 °F 33.8 °F 62% 29.53 in 6.2 mi SW 11.5 mph - N/A   Partly Cloudy
1:30 PM 46.4 °F 40.7 °F 33.8 °F 62% 29.50 in 6.2 mi SW 12.7 mph - N/A   Partly Cloudy
2:00 PM 46.4 °F 40.4 °F 33.8 °F 62% 29.50 in 6.2 mi SW 13.8 mph - N/A   Partly Cloudy
2:30 PM 46.4 °F 40.4 °F 32.0 °F 57% 29.50 in 6.2 mi SW 13.8 mph - N/A   Partly Cloudy
3:30 PM 46.4 °F 41.1 °F 32.0 °F 57% 29.47 in 6.2 mi SW 11.5 mph - N/A   Partly Cloudy
4:00 PM 44 °F - 33 °F 53% 29.45 in 19 mi SSW 13.4 mph - -   Scattered Clouds
4:00 PM 44.6 °F 38.8 °F 32.0 °F 61% 29.44 in - SW 11.5 mph - N/A   Clear
4:30 PM 42.8 °F 36.6 °F 32.0 °F 66% 29.44 in - SW 11.5 mph - N/A   Clear
5:00 PM 42.8 °F 37.5 °F 32.0 °F 66% 29.42 in 6.2 mi SSW 9.2 mph - N/A   Partly Cloudy
5:30 PM 42.8 °F 37.5 °F 32.0 °F 66% 29.42 in 6.2 mi SSW 9.2 mph - N/A   Partly Cloudy
6:00 PM 42.8 °F 37.5 °F 32.0 °F 66% 29.44 in 6.2 mi SW 9.2 mph - N/A   Partly Cloudy
6:30 PM 42.8 °F 36.6 °F 32.0 °F 66% 29.44 in 6.2 mi West 11.5 mph - N/A   Scattered Clouds
7:00 PM 37 °F - 34 °F 83% 29.49 in 4 mi West 15.7 mph - - Snow Light Snow Showers
7:00 PM 37.4 °F 27.5 °F 33.8 °F 87% 29.47 in 4.3 mi WNW 18.4 mph - N/A Rain , Snow Rain Showers
7:30 PM 37.4 °F 30.8 °F 32.0 °F 81% 29.47 in 6.2 mi West 9.2 mph - N/A   Scattered Clouds
8:00 PM 39.2 °F 31.6 °F 30.2 °F 70% 29.47 in 6.2 mi West 12.7 mph - N/A   Partly Cloudy
8:30 PM 39.2 °F 33.6 °F 28.4 °F 65% 29.47 in 6.2 mi West 8.1 mph - N/A   Partly Cloudy
9:00 PM 39.2 °F 32.0 °F 28.4 °F 65% 29.47 in - West 11.5 mph - N/A   Clear
9:30 PM 37.4 °F 30.3 °F 28.4 °F 70% 29.47 in - WNW 10.4 mph - N/A   Clear
10:00 PM 35 °F - 29 °F 72% 29.51 in 31 mi West 6.7 mph - -   Partly Cloudy
10:00 PM 37.4 °F 31.4 °F 28.4 °F 70% 29.50 in - West 8.1 mph - N/A   Clear
10:30 PM 37.4 °F 33.8 °F 28.4 °F 70% 29.47 in - WSW 4.6 mph - N/A   Clear
11:00 PM 37.4 °F 33.8 °F 26.6 °F 65% 29.47 in - WSW 4.6 mph - N/A   Clear
11:30 PM 37.4 °F 33.8 °F 26.6 °F 65% 29.50 in - WSW 4.6 mph - N/A   Clear